Date String (YYYY-MM-DD hh:mm:ss) UTC,Instrument flags,absolute air pressure of the measurement (hPa),sample flow rate (lpm),inlet stack bypass flow (lpm),air temperature of the measurement (°C),ambient temperature measured by the external sensor (°C),aerosol sample conditioner tube jacket temperature (°C),OPC LED temperature (°C),internal box temperature (°C),relative humidity of the measurement (%),span deviation,mass concentration of particles derived from Lorenz-Mie calculation of OPC scattering (μg/m³),mass concentration of particles derived from Lorenz-Mie calculation of OPC scattering (μg/m³),mass concentration of particles derived from Lorenz-Mie calculation of OPC scattering (μg/m³)
DateTimeUTC,F1_M11,P_M11,Q1_M11,Q2_M11,T1_M11,T2_M11,T3_M11,T4_M11,T5_M11,U1_M11,ZSPAN_M11,X0_M11,X2_M11,X1_M11
2023-08-13 01:00:00,SystemResetWarning,0830.9,5.00,000.00,028.9,027.3,000.0,037.3,030.7,30.9,0000.0,0006.00,0003.18,0002.61
2023-08-13 01:01:00,SystemResetWarning,0830.8,5.00,000.00,028.9,027.5,000.0,037.3,030.7,31.1,0000.0,0005.91,0003.17,0002.64
2023-08-13 01:02:00,SystemResetWarning,0830.8,5.00,000.00,029.0,027.7,000.0,037.4,030.8,31.4,0000.0,0005.84,0003.16,0002.65
2023-08-13 01:03:00,SystemResetWarning,0830.9,5.00,000.00,029.0,027.9,000.0,037.4,030.9,31.4,0000.0,0005.89,0003.17,0002.65
2023-08-13 01:04:00,SystemResetWarning,0830.9,5.00,000.00,029.1,028.0,000.0,037.4,030.9,31.0,0000.0,0005.76,0003.16,0002.66
2023-08-13 01:05:00,SystemResetWarning,0830.9,4.99,000.00,029.1,027.5,000.0,037.4,030.9,31.3,0000.0,0005.82,0003.18,0002.67
2023-08-13 01:06:00,SystemResetWarning,0830.9,4.99,000.00,029.1,025.7,000.0,037.3,030.5,31.3,0000.0,0006.01,0003.17,0002.68
2023-08-13 01:07:00,SystemResetWarning,0830.9,5.01,000.00,029.0,024.7,000.0,037.2,030.3,31.4,0000.0,0007.02,0003.17,0002.69
2023-08-13 01:08:00,SystemResetWarning,0830.9,5.01,000.00,028.9,024.8,000.0,037.1,030.2,31.4,0000.0,0006.42,0003.19,0002.72
2023-08-13 01:09:00,SystemResetWarning,0830.9,5.00,000.00,028.8,025.2,000.0,037.2,030.2,31.5,0000.0,0006.43,0003.21,0002.72
2023-08-13 01:10:00,SystemResetWarning,0830.9,5.00,000.00,028.8,025.6,000.0,037.2,030.3,31.5,0000.0,0006.97,0003.20,0002.73
2023-08-13 01:11:00,SystemResetWarning,0831.0,4.99,000.00,028.8,026.1,000.0,037.3,030.4,31.3,0000.0,0007.01,0003.20,0002.74
2023-08-13 01:12:00,SystemResetWarning,0831.0,4.99,000.00,028.8,026.5,000.0,037.3,030.5,31.1,0000.0,0007.17,0003.22,0002.75
2023-08-13 01:13:00,SystemResetWarning,0831.0,5.00,000.00,028.9,026.8,000.0,037.3,030.6,31.3,0000.0,0007.30,0003.23,0002.76
2023-08-13 01:14:00,SystemResetWarning,0831.0,5.00,000.00,028.9,027.2,000.0,037.3,030.7,31.2,0000.0,0007.28,0003.23,0002.77
2023-08-13 01:15:00,SystemResetWarning,0830.9,4.99,000.00,029.0,027.4,000.0,037.3,030.7,31.2,0000.0,0007.68,0003.23,0002.79
2023-08-13 01:16:00,SystemResetWarning,0831.0,5.00,000.00,029.0,027.6,000.0,037.4,030.8,30.9,0000.0,0007.98,0003.26,0002.79
2023-08-13 01:17:00,SystemResetWarning,0831.0,5.00,000.00,029.0,027.8,000.0,037.4,030.8,30.9,0000.0,0007.99,0003.26,0002.79
2023-08-13 01:18:00,SystemResetWarning,0831.0,5.00,000.00,029.1,028.0,000.0,037.4,030.9,30.8,0000.0,0007.34,0003.25,0002.78
2023-08-13 01:19:00,SystemResetWarning,0831.0,5.00,000.00,029.1,028.0,000.0,037.4,030.9,30.5,0000.0,0007.78,0003.25,0002.78
2023-08-13 01:20:00,SystemResetWarning,0830.9,4.99,000.00,029.1,026.5,000.0,037.3,030.6,30.5,0000.0,0007.71,0003.23,0002.77
2023-08-13 01:21:00,SystemResetWarning,0830.9,5.01,000.00,029.1,025.1,000.0,037.2,030.4,30.5,0000.0,0007.42,0003.28,0002.77
2023-08-13 01:22:00,SystemResetWarning,0830.9,5.01,000.00,029.0,024.8,000.0,037.2,030.2,30.5,0000.0,0007.43,0003.29,0002.78
2023-08-13 01:23:00,SystemResetWarning,0830.9,5.00,000.00,028.9,025.1,000.0,037.2,030.1,30.6,0000.0,0007.34,0003.28,0002.78
2023-08-13 01:24:00,SystemResetWarning,0830.9,4.99,000.00,028.8,025.5,000.0,037.2,030.2,31.0,0000.0,0007.77,0003.28,0002.77
2023-08-13 01:25:00,SystemResetWarning,0830.9,5.00,000.00,028.8,026.0,000.0,037.3,030.4,30.8,0000.0,0007.92,0003.27,0002.79
2023-08-13 01:26:00,SystemResetWarning,0830.9,5.00,000.00,028.8,026.4,000.0,037.3,030.5,30.7,0000.0,0007.70,0003.27,0002.79
2023-08-13 01:27:00,SystemResetWarning,0831.0,4.99,000.00,028.9,026.8,000.0,037.3,030.6,30.5,0000.0,0007.46,0003.28,0002.80
2023-08-13 01:28:00,SystemResetWarning,0831.0,4.99,000.00,028.9,027.1,000.0,037.3,030.7,29.8,0000.0,0008.13,0003.28,0002.81
2023-08-13 01:29:00,SystemResetWarning,0831.0,4.99,000.00,029.0,027.3,000.0,037.4,030.7,29.8,0000.0,0008.24,0003.32,0002.83
2023-08-13 01:30:00,SystemResetWarning,0831.1,5.01,000.00,029.0,027.6,000.0,037.4,030.8,29.6,0000.0,0007.86,0003.30,0002.83
2023-08-13 01:31:00,SystemResetWarning,0831.1,5.01,000.00,029.1,027.8,000.0,037.4,030.9,29.5,0000.0,0007.65,0003.31,0002.84
2023-08-13 01:32:00,SystemResetWarning,0831.1,5.00,000.00,029.1,027.9,000.0,037.4,030.9,29.1,0000.0,0007.60,0003.32,0002.85
2023-08-13 01:33:00,SystemResetWarning,0831.1,5.00,000.00,029.2,028.1,000.0,037.5,031.0,28.7,0000.0,0007.84,0003.32,0002.85
2023-08-13 01:34:00,SystemResetWarning,0831.1,4.98,000.00,029.2,027.3,000.0,037.4,030.9,29.0,0000.0,0008.94,0003.33,0002.86
2023-08-13 01:35:00,SystemResetWarning,0831.0,5.00,000.00,029.1,025.5,000.0,037.3,030.5,29.1,0000.0,0008.60,0003.34,0002.87
2023-08-13 01:36:00,SystemResetWarning,0831.0,5.01,000.00,029.0,024.7,000.0,037.2,030.2,28.1,0000.0,0008.44,0003.35,0002.87
2023-08-13 01:37:00,SystemResetWarning,0830.9,5.01,000.00,028.9,024.8,000.0,037.2,030.1,29.3,0000.0,0008.75,0003.36,0002.86
2023-08-13 01:38:00,SystemResetWarning,0830.9,5.00,000.00,028.8,025.2,000.0,037.3,030.1,29.2,0000.0,0008.64,0003.38,0002.85
2023-08-13 01:39:00,SystemResetWarning,0831.0,5.00,000.00,028.8,025.7,000.0,037.3,030.3,29.1,0000.0,0007.99,0003.38,0002.84
2023-08-13 01:40:00,SystemResetWarning,0831.0,5.00,000.00,028.8,026.1,000.0,037.3,030.4,28.7,0000.0,0007.93,0003.37,0002.83
2023-08-13 01:41:00,SystemResetWarning,0831.0,5.00,000.00,028.9,026.5,000.0,037.3,030.5,28.7,0000.0,0007.81,0003.33,0002.83
2023-08-13 01:42:00,SystemResetWarning,0831.1,5.00,000.00,028.9,026.9,000.0,037.3,030.6,28.3,0000.0,0007.76,0003.32,0002.83
2023-08-13 01:43:00,SystemResetWarning,0831.1,5.00,000.00,028.9,027.2,000.0,037.4,030.7,28.0,0000.0,0007.72,0003.30,0002.82
2023-08-13 01:44:00,SystemResetWarning,0831.1,5.00,000.00,029.0,027.4,000.0,037.4,030.7,28.7,0000.0,0008.30,0003.30,0002.82
2023-08-13 01:45:00,SystemResetWarning,0831.1,4.99,000.00,029.0,027.7,000.0,037.4,030.8,28.9,0000.0,0007.33,0003.31,0002.82
2023-08-13 01:46:00,SystemResetWarning,0831.1,4.99,000.00,029.1,027.8,000.0,037.4,030.9,29.1,0000.0,0006.99,0003.31,0002.82
2023-08-13 01:47:00,SystemResetWarning,0831.1,5.00,000.00,029.1,028.0,000.0,037.5,030.9,29.2,0000.0,0006.90,0003.32,0002.83
2023-08-13 01:48:00,SystemResetWarning,0831.1,5.00,000.00,029.2,027.8,000.0,037.5,030.9,29.2,0000.0,0006.60,0003.35,0002.85
2023-08-13 01:49:00,SystemResetWarning,0831.1,5.00,000.00,029.1,026.2,000.0,037.4,030.6,29.2,0000.0,0006.40,0003.34,0002.87
2023-08-13 01:50:00,SystemResetWarning,0831.1,5.02,000.00,029.1,025.6,000.0,037.3,030.4,29.3,0000.0,0006.85,0003.33,0002.90
2023-08-13 01:51:00,SystemResetWarning,0831.1,5.00,000.00,029.0,025.7,000.0,037.3,030.3,29.4,0000.0,0007.40,0003.35,0002.92
2023-08-13 01:52:00,SystemResetWarning,0831.1,5.00,000.00,028.9,026.1,000.0,037.3,030.4,29.6,0000.0,0007.59,0003.41,0002.93
2023-08-13 01:53:00,SystemResetWarning,0831.1,5.00,000.00,028.9,026.4,000.0,037.4,030.5,29.2,0000.0,0007.70,0003.45,0002.96
2023-08-13 01:54:00,SystemResetWarning,0831.1,5.01,000.00,029.0,026.8,000.0,037.4,030.6,29.2,0000.0,0007.74,0003.48,0002.98
2023-08-13 01:55:00,SystemResetWarning,0831.1,4.99,000.00,029.0,027.1,000.0,037.4,030.7,29.4,0000.0,0007.11,0003.47,0003.00
2023-08-13 01:56:00,SystemResetWarning,0831.1,5.00,000.00,029.1,027.4,000.0,037.5,030.8,29.4,0000.0,0006.89,0003.47,0003.01
2023-08-13 01:57:00,SystemResetWarning,0831.1,5.00,000.00,029.1,027.6,000.0,037.5,030.9,29.2,0000.0,0007.37,0003.52,0003.04
2023-08-13 01:58:00,SystemResetWarning,0831.1,5.00,000.00,029.1,027.8,000.0,037.5,030.9,29.0,0000.0,0007.82,0003.52,0003.06
2023-08-13 01:59:00,SystemResetWarning,0831.1,5.00,000.00,029.2,027.8,000.0,037.5,031.0,29.0,0000.0,0007.77,0003.50,0003.06
